This is the latest recevied weather packets stored in our database for station/object N3WMC. If no packets are shown the sender has not sent any weather packets the latest 10 day(s).
| Time | Temp. | Humidity | Pressure | Rain* | Wind** | Luminosity | Snow |
|---|---|---|---|---|---|---|---|
| 1778202256 | 11.67° C | 50% | 1013.1 hPa | 0 mm | - | 0 W/m² | - |
| 1778201953 | 11.67° C | 49% | 1013 hPa | 0 mm | - | 0 W/m² | - |
| 1778201650 | 11.67° C | 48% | 1013 hPa | 0 mm | - | 0 W/m² | - |
| 1778201346 | 12.22° C | 46% | 1012.9 hPa | 0 mm | - | 0 W/m² | - |
| 1778201042 | 12.22° C | 45% | 1012.9 hPa | 0 mm | - | 0 W/m² | - |
| 1778200739 | 12.22° C | 45% | 1012.6 hPa | 0 mm | - | 0 W/m² | - |
| 1778200436 | 12.78° C | 44% | 1012.9 hPa | 0 mm | - | 0 W/m² | - |
| 1778200133 | 12.78° C | 44% | 1012.5 hPa | 0 mm | - | 1 W/m² | - |
| 1778199830 | 12.78° C | 43% | 1012.2 hPa | 0 mm | - | 2 W/m² | - |
| 1778199526 | 12.78° C | 42% | 1012.2 hPa | 0 mm | - | 3 W/m² | - |
| 1778199222 | 13.33° C | 42% | 1011.9 hPa | 0 mm | - | 6 W/m² | - |
| 1778198919 | 13.33° C | 41% | 1012.3 hPa | 0 mm | - | 7 W/m² | - |
| 1778198615 | 13.33° C | 41% | 1012 hPa | 0 mm | - | 8 W/m² | - |
| 1778198311 | 13.33° C | 40% | 1011.9 hPa | 0 mm | - | 12 W/m² | - |
| 1778198009 | 13.89° C | 40% | 1011.9 hPa | 0 mm | - | 18 W/m² | - |
| 1778197706 | 13.89° C | 39% | 1011.9 hPa | 0 mm | - | 19 W/m² | - |
| 1778197403 | 13.89° C | 39% | 1011.8 hPa | 0 mm | - | 23 W/m² | - |
| 1778197099 | 13.89° C | 39% | 1011.8 hPa | 0 mm | - | 24 W/m² | - |
| 1778196797 | 13.89° C | 39% | 1011.7 hPa | 0 mm | - | 25 W/m² | - |
| 1778196495 | 13.89° C | 38% | 1011.7 hPa | 0 mm | - | 30 W/m² | - |
| 1778196191 | 14.44° C | 37% | 1011.6 hPa | 0 mm | - | 33 W/m² | - |
| 1778195888 | 14.44° C | 37% | 1011.5 hPa | 0 mm | - | 39 W/m² | - |
| 1778195585 | 15° C | 37% | 1011.5 hPa | 0 mm | - | 47 W/m² | - |
| 1778195281 | 15.56° C | 36% | 1011.3 hPa | 0 mm | - | 70 W/m² | - |
| 1778194979 | 15° C | 37% | 1011.3 hPa | 0 mm | - | 72 W/m² | - |
* Rain latest hour (hover to see other rain measurements)
** Current wind speed in m/s (hover to see current wind gust speed)